"Pseudo-MPEC" for P22h0fn

Created 2025 Nov 9 8:35:06 UT using Find_Orb

Click here for an explanation of pseudo-MPECs

 
 Astrometry: 
     P22h0fn* C2025 11 07.62145109 18 20.777+38 18 13.96   ~B7GK 20.67iXNEOCPF52
     P22h0fn  C2025 11 07.63711009 18 23.864+38 17 45.96   ~B7GK 20.18iXNEOCPF52
     P22h0fn  C2025 11 07.64502809 18 25.455+38 17 30.75   ~B7GK 20.14iXNEOCPF52

Station data:
(F52) Pan-STARRS 2, Haleakala  (N20.707382 W156.255910)  US/Hawaii.
   Observers J. Herman, T. Lowe, P. Minguez, A. Schultz, I. Smith. Measurers
   K. Chambers, T. de Boer, J. Fairlamb, H. Gao, M. Huber, C.-C. Lin, E.
   Magnier, Y. Ramanjooloo, R. Wainscoat, R. Weryk. 1.8-m Ritchey-Chrétien +
   CCD.

Orbital elements:  P22h0fn
   Perihelion 2026 Jan 4.974669 +/- 29.9 TT = 23:23:31.4 (JD 2461045.474669)
Epoch 2025 Nov  8.0 TT = JDT 2460987.5   Earth MOID: 0.0268      AutoNEOCP
M 279.361446151 +/- 58              (J2000 ecliptic)
n   1.390927366 +/- 0.896           Peri.  328.716887 +/- 70
a   0.794815658 +/- 0.341           Node   244.775370 +/- 33
e   0.77006148 +/- 0.227            Incl.   89.729654 +/- 43
P   0.709/258.815d         H 20.20  G  0.15   U 12.7  SR
q 0.182758734 +/- 0.37    Q 1.406872583 +/- 15
From 3 observations 2025 Nov. 7 (34.0 min); mean residual 0".23
Residuals in arcseconds: 
251107 F52  .05+  .14-    251107 F52  .16-  .42+    251107 F52  .10+  .28-    

Ephemerides (geocentric):
Date (UTC) HH   RA             Dec           delta  r     elong  mag " sig PA
---- --------  ------------   ------------  ------ ------ -----  --- --------
2025 11 09 09  09 24 55.965   +37 17 28.11  .35422 1.0800  94.9 20.4  31d  61
2025 11 09 10  09 25 06.197   +37 15 50.93  .35327 1.0796  94.9 20.4  31d  61
2025 11 09 11  09 25 16.471   +37 14 13.18  .35231 1.0792  94.9 20.4  31d  61
2025 11 09 12  09 25 26.788   +37 12 34.86  .35136 1.0788  94.9 20.4  31d  61
2025 11 09 13  09 25 37.148   +37 10 55.98  .35041 1.0784  94.9 20.4  31d  61
2025 11 09 14  09 25 47.551   +37 09 16.53  .34946 1.0779  94.9 20.4  31d  61
2025 11 09 15  09 25 57.999   +37 07 36.49  .34851 1.0775  94.9 20.4  31d  61
2025 11 09 16  09 26 08.490   +37 05 55.87  .34756 1.0771  94.9 20.4  31d  61
2025 11 09 17  09 26 19.025   +37 04 14.66  .34660 1.0767  94.9 20.4  32d  60
2025 11 09 18  09 26 29.605   +37 02 32.86  .34565 1.0763  94.9 20.4  32d  60
2025 11 09 19  09 26 40.230   +37 00 50.45  .34470 1.0759  94.9 20.4  33d  59
2025 11 09 20  09 26 50.901   +36 59 07.45  .34375 1.0755  94.9 20.4  34d  59
2025 11 09 21  09 27 01.617   +36 57 23.83  .34280 1.0751  94.9 20.4  34d  59
2025 11 09 22  09 27 12.380   +36 55 39.59  .34185 1.0747  94.8 20.4  35d  59
2025 11 09 23  09 27 23.189   +36 53 54.73  .34090 1.0743  94.8 20.4  36d  59
2025 11 10 00  09 27 34.044   +36 52 09.25  .33995 1.0739  94.8 20.4  36d  59
2025 11 10 01  09 27 44.947   +36 50 23.13  .33900 1.0735  94.8 20.4  37d  59
2025 11 10 02  09 27 55.897   +36 48 36.37  .33805 1.0731  94.8 20.4  37d  60
2025 11 10 03  09 28 06.895   +36 46 48.97  .33710 1.0727  94.8 20.3  37d  60
2025 11 10 04  09 28 17.942   +36 45 00.92  .33615 1.0723  94.8 20.3  37d  60
2025 11 10 05  09 28 29.036   +36 43 12.22  .33520 1.0718  94.8 20.3  38d  60
2025 11 10 06  09 28 40.180   +36 41 22.85  .33425 1.0714  94.8 20.3  38d  60
2025 11 10 07  09 28 51.374   +36 39 32.81  .33330 1.0710  94.8 20.3  38d  60
2025 11 10 08  09 29 02.616   +36 37 42.10  .33235 1.0706  94.8 20.3  38d  60
2025 11 10 09  09 29 13.910   +36 35 50.71  .33140 1.0702  94.8 20.3  39d  60
2025 11 10 10  09 29 25.253   +36 33 58.64  .33045 1.0698  94.8 20.3  39d  60
2025 11 10 11  09 29 36.648   +36 32 05.87  .32950 1.0694  94.8 20.3  39d  60
2025 11 10 12  09 29 48.093   +36 30 12.40  .32855 1.0690  94.8 20.3  40d  60
2025 11 10 13  09 29 59.591   +36 28 18.23  .32760 1.0686  94.8 20.3  40d  60
2025 11 10 14  09 30 11.140   +36 26 23.34  .32665 1.0681  94.8 20.3  40d  59
2025 11 10 15  09 30 22.742   +36 24 27.74  .32570 1.0677  94.8 20.3  41d  59
2025 11 10 16  09 30 34.397   +36 22 31.41  .32475 1.0673  94.7 20.3  41d  59
2025 11 10 17  09 30 46.106   +36 20 34.34  .32380 1.0669  94.7 20.3  42d  59
2025 11 10 18  09 30 57.868   +36 18 36.54  .32285 1.0665  94.7 20.3  42d  59
2025 11 10 19  09 31 09.684   +36 16 38.00  .32190 1.0661  94.7 20.3  42d  60
2025 11 10 20  09 31 21.555   +36 14 38.70  .32095 1.0657  94.7 20.3  42d  60
2025 11 10 21  09 31 33.481   +36 12 38.64  .32001 1.0653  94.7 20.2  43d  60
2025 11 10 22  09 31 45.462   +36 10 37.81  .31906 1.0648  94.7 20.2  43d  60
2025 11 10 23  09 31 57.499   +36 08 36.21  .31811 1.0644  94.7 20.2  43d  60
2025 11 11 00  09 32 09.593   +36 06 33.82  .31716 1.0640  94.7 20.2  43d  60
2025 11 11 01  09 32 21.743   +36 04 30.65  .31621 1.0636  94.7 20.2  43d  60
2025 11 11 02  09 32 33.951   +36 02 26.68  .31527 1.0632  94.6 20.2  43d  60
2025 11 11 03  09 32 46.216   +36 00 21.90  .31432 1.0628  94.6 20.2  44d  60
2025 11 11 04  09 32 58.540   +35 58 16.32  .31337 1.0623  94.6 20.2  44d  60
2025 11 11 05  09 33 10.922   +35 56 09.91  .31242 1.0619  94.6 20.2  44d  60
2025 11 11 06  09 33 23.363   +35 54 02.67  .31148 1.0615  94.6 20.2  44d  60
2025 11 11 07  09 33 35.864   +35 51 54.60  .31053 1.0611  94.6 20.2  45d  60
2025 11 11 08  09 33 48.425   +35 49 45.69  .30958 1.0607  94.6 20.2  45d  59